Location: Newark
(44.0160°N, 116.9215°W)
Time: 16:46:27
(UTC+00:00)

Envisat - Pass Details

Date: 23 November 2019
Orbit: 764 x 766 km, 98.1° (Epoch: 14 December)

Event Time Altitude Azimuth Distance (km) Brightness Sun altitude
Rises 03:05:08 0° 211° (SSW) 3,220 6.6 -30.1°
Reaches altitude 10° 03:08:18 10° 232° (SW) 2,300 6.0 -30.7°
Maximum altitude 03:11:26 16° 270° (W) 1,900 5.8 -31.3°
Drops below altitude 10° 03:14:35 10° 309° (NW) 2,310 6.1 -31.8°
Sets 03:17:47 0° 330° (NNW) 3,242 6.6 -32.4°
